TimeEST,TemperatureF,Dew PointF,Humidity,Sea Level PressureIn,VisibilityMPH,Wind Direction,Wind SpeedMPH,Gust SpeedMPH,PrecipitationIn,Events,Conditions,WindDirDegrees,DateUTC
12:53 AM,43.0,30.0,60,30.15,10.0,SW,15.0,-,N/A,,Overcast,220,2013-01-24 05:53:00
1:53 AM,43.0,30.9,62,30.15,10.0,SW,12.7,-,N/A,,Overcast,220,2013-01-24 06:53:00
2:53 AM,43.0,32.0,65,30.16,10.0,SW,9.2,-,N/A,,Overcast,230,2013-01-24 07:53:00
3:53 AM,43.0,28.9,58,30.19,10.0,West,13.8,-,N/A,,Overcast,280,2013-01-24 08:53:00
4:53 AM,39.9,25.0,55,30.20,10.0,West,11.5,-,N/A,,Partly Cloudy,280,2013-01-24 09:53:00
5:53 AM,37.0,24.1,59,30.23,10.0,West,9.2,-,N/A,,Clear,270,2013-01-24 10:53:00
6:53 AM,33.1,21.9,64,30.25,10.0,WSW,4.6,-,N/A,,Clear,240,2013-01-24 11:53:00
7:53 AM,33.1,18.0,54,30.30,10.0,North,10.4,-,N/A,,Partly Cloudy,350,2013-01-24 12:53:00
8:53 AM,34.0,17.1,50,30.34,10.0,NNE,12.7,-,N/A,,Partly Cloudy,20,2013-01-24 13:53:00
9:53 AM,33.1,17.1,52,30.38,10.0,North,17.3,-,N/A,,Partly Cloudy,10,2013-01-24 14:53:00
10:53 AM,33.1,12.9,43,30.40,10.0,North,16.1,-,N/A,,Partly Cloudy,360,2013-01-24 15:53:00
11:53 AM,33.1,6.1,32,30.42,10.0,North,13.8,23.0,N/A,,Partly Cloudy,360,2013-01-24 16:53:00
12:53 PM,35.1,8.1,33,30.41,10.0,North,13.8,17.3,N/A,,Partly Cloudy,360,2013-01-24 17:53:00
1:53 PM,36.0,5.0,27,30.39,10.0,North,11.5,-,N/A,,Partly Cloudy,360,2013-01-24 18:53:00
2:53 PM,36.0,3.9,26,30.38,10.0,NNE,8.1,-,N/A,,Clear,20,2013-01-24 19:53:00
3:53 PM,35.1,1.9,25,30.39,10.0,NE,10.4,-,N/A,,Clear,40,2013-01-24 20:53:00
4:53 PM,34.0,3.0,27,30.41,10.0,NE,8.1,-,N/A,,Clear,50,2013-01-24 21:53:00
5:53 PM,32.0,3.0,29,30.41,10.0,North,9.2,-,N/A,,Partly Cloudy,10,2013-01-24 22:53:00
6:53 PM,30.0,3.0,32,30.42,10.0,NNE,9.2,-,N/A,,Clear,20,2013-01-24 23:53:00
7:53 PM,28.0,3.9,36,30.41,10.0,NE,6.9,-,N/A,,Clear,40,2013-01-25 00:53:00
8:53 PM,28.9,3.0,33,30.41,10.0,North,6.9,-,N/A,,Clear,10,2013-01-25 01:53:00
9:53 PM,27.0,5.0,39,30.38,10.0,NNE,9.2,-,N/A,,Clear,30,2013-01-25 02:53:00
10:53 PM,27.0,5.0,39,30.38,10.0,NE,9.2,-,N/A,,Clear,40,2013-01-25 03:53:00
11:53 PM,26.1,5.0,41,30.38,10.0,NNE,6.9,-,N/A,,Clear,30,2013-01-25 04:53:00